Overview Statistics Trail Chart Weather Telemetry Raw packets
 

This is the latest recevied weather packets stored in our database for station/object K7SKM. If no packets are shown the sender has not sent any weather packets the latest 10 day(s).

<< 90 91 92 93 94 95 96 >>
Time Temp. Humidity Pressure Rain* Wind** Luminosity Snow
1788012697 13.33° C 84% 1020.6 hPa 0 mm - 0 W/m² -
1788012394 13.33° C 83% 1020.6 hPa 0 mm - 0 W/m² -
1788012088 13.89° C 83% 1020.5 hPa 0 mm - 0 W/m² -
1788011787 13.89° C 81% 1020.7 hPa 1.78 mm - 0 W/m² -
1788011486 13.89° C 80% 1020.4 hPa 5.33 mm - 0 W/m² -
1788011182 14.44° C 78% 1020.5 hPa 7.11 mm - 0 W/m² -
1788010876 15° C 76% 1020.3 hPa 3.56 mm - 1 W/m² -
1788010575 15° C 74% 1020.3 hPa 0 mm - 0 W/m² -
1788010270 15° C 74% 1020.5 hPa 0 mm - 0 W/m² -
1788009970 15° C 74% 1020.2 hPa 0 mm - 0 W/m² -
1788009668 15° C 74% 1020.3 hPa 0 mm - 0 W/m² -
1788009362 15° C 73% 1020.2 hPa 0 mm - 0 W/m² -
1788009062 15° C 71% 1020.3 hPa 0 mm - 0 W/m² -
1788008757 15° C 71% 1020.3 hPa 0 mm - 0 W/m² -
1788008456 15° C 71% 1020.2 hPa 0 mm - 0 W/m² -
1788008154 15° C 71% 1020.3 hPa 0 mm - 0 W/m² -
1788007853 15° C 71% 1020.3 hPa 0 mm - 0 W/m² -
1788007555 15° C 71% 1020.3 hPa 0 mm - 0 W/m² -
1788007252 15° C 72% 1020.2 hPa 0 mm - 0 W/m² -
1788006951 15° C 73% 1020.1 hPa 0 mm - 0 W/m² -
1788006645 15° C 73% 1020.2 hPa 0 mm - 0 W/m² -
1788006340 15° C 73% 1020.3 hPa 0 mm - 0 W/m² -
1788006038 15° C 73% 1020.4 hPa 0 mm - 0 W/m² -
1788005733 15° C 73% 1020.4 hPa 0 mm - 0 W/m² -
1788005428 15° C 73% 1020.4 hPa 0 mm - 0 W/m² -

* Rain latest hour (hover to see other rain measurements)
** Current wind speed in m/s (hover to see current wind gust speed)